Weather History for Colby, KS

Change the Weather History Date:

Friday, September 20, 2013

  Actual Average (KGLD) Record (KGLD)
Temperature  
Mean Temperature 60 °F 63 °F  
Max Temperature 73 °F 77 °F 95 °F (1970)
Min Temperature 46 °F 48 °F 30 °F (1983)
Degree Days  
Heating Degree Days 6 5  
Month to date heating degree days 48  
Since 1 July heating degree days 60  
Cooling Degree Days 0 2  
Month to date cooling degree days 86  
Year to date cooling degree days 919  
Growing Degree Days 10 (Base 50)    
Moisture  
Dew Point 49 °F    
Average Humidity 70    
Maximum Humidity 100    
Minimum Humidity 36    
Precipitation  
Precipitation 0.00 in 0.04 in 1.47 in (1965)
Month to date precipitation 0.83  
Year to date precipitation 16.73  
Snow  
Snow 0.00 in 0.00 in - ()
Month to date snowfall 0.2  
Since 1 July snowfall 0.2  
Since 1 September snowfall 0.2  
Snow Depth -    
Sea Level Pressure  
Sea Level Pressure 30.14 in    
Wind  
Wind Speed 5 mph (SSW)    
Max Wind Speed 12 mph    
Max Gust Speed -    
Visibility 10 miles    
Events      
T = Trace of Precipitation, MM = Missing Value Source: NWS Daily Summary

Daily Weather History Graph

Daily Weather History Graph

Search for Another Location

Airport:

Trip Planner

Search our weather history database for the weather conditions in past years. The results will help you decide how hot, cold, wet, or windy it might be!

Date:

Astronomy

Sep. 20, 2013 Rise Set
Actual Time 7:30 AM CDT 7:44 PM CDT
Civil Twilight 7:03 AM CDT 8:10 PM CDT
Nautical Twilight 6:31 AM CDT 8:42 PM CDT
Astronomical Twilight 5:59 AM CDT 9:14 PM CDT
Moon 8:19 PM CDT (9/20) 8:46 AM CDT (9/20)
Length of Visible Light 13h 07m
Length of Day
12h 13m
Full, 98% of the Moon is Illuminated
Sep 20
Full
Sep 26
Last Quarter
Oct 4
New
Oct 11
First Quarter
Oct 18
Full

Hourly Weather History & Observations

Time (CDT) Temp. Windchill Dew Point Humidity Pressure Visibility Wind Dir Wind Speed Gust Speed Precip Events Conditions
12:15 AM 53.6 °F - 50.0 °F 88% 30.18 in 10.0 mi NE 5.8 mph - N/A   Clear
12:35 AM 53.6 °F - 50.0 °F 88% 30.18 in 7.0 mi NNE 3.5 mph - N/A   Clear
12:55 AM 53.6 °F - 50.0 °F 88% 30.18 in 10.0 mi Calm Calm - N/A   Clear
1:15 AM 51.8 °F - 51.8 °F 100% 30.18 in 10.0 mi NNW 3.5 mph - N/A   Clear
1:35 AM 53.6 °F - 51.8 °F 94% 30.18 in 10.0 mi North 4.6 mph - N/A   Clear
1:55 AM 53.6 °F - 50.0 °F 88% 30.17 in 10.0 mi North 3.5 mph - N/A   Clear
2:15 AM 53.6 °F - 50.0 °F 88% 30.18 in 10.0 mi North 3.5 mph - N/A   Clear
2:35 AM 50.0 °F - 50.0 °F 100% 30.18 in 10.0 mi NW 4.6 mph - N/A   Clear
2:55 AM 51.8 °F - 50.0 °F 94% 30.18 in 10.0 mi North 4.6 mph - N/A   Scattered Clouds
3:15 AM 51.8 °F - 51.8 °F 100% 30.17 in 10.0 mi North 3.5 mph - N/A   Scattered Clouds
3:35 AM 51.8 °F - 50.0 °F 94% 30.17 in 10.0 mi NNW 5.8 mph - N/A   Mostly Cloudy
3:55 AM 51.8 °F - 50.0 °F 94% 30.17 in 10.0 mi North 4.6 mph - N/A   Scattered Clouds
4:15 AM 51.8 °F - 50.0 °F 94% 30.17 in 10.0 mi NNW 5.8 mph - N/A   Scattered Clouds
4:35 AM 51.8 °F - 50.0 °F 94% 30.17 in 10.0 mi NW 3.5 mph - N/A   Scattered Clouds
4:55 AM 50.0 °F - 50.0 °F 100% 30.17 in 10.0 mi West 3.5 mph - N/A   Scattered Clouds
5:15 AM 48.2 °F - 48.2 °F 100% 30.18 in 10.0 mi West 5.8 mph - N/A   Clear
5:35 AM 48.2 °F - 48.2 °F 100% 30.18 in 10.0 mi WNW 6.9 mph - N/A   Scattered Clouds
5:55 AM 48.2 °F - 48.2 °F 100% 30.17 in 10.0 mi NW 9.2 mph - N/A   Scattered Clouds
6:35 AM 48.2 °F - 46.4 °F 93% 30.18 in 10.0 mi WSW 6.9 mph - N/A   Clear
6:55 AM 46.4 °F 45.2 °F 46.4 °F 100% 30.18 in 10.0 mi West 3.5 mph - N/A   Clear
7:15 AM 46.4 °F 43.5 °F 46.4 °F 100% 30.18 in 10.0 mi WNW 5.8 mph - N/A   Scattered Clouds
7:35 AM 46.4 °F 44.3 °F 46.4 °F 100% 30.18 in 10.0 mi West 4.6 mph - N/A   Scattered Clouds
7:55 AM 46.4 °F 44.3 °F 46.4 °F 100% 30.19 in 10.0 mi SW 4.6 mph - N/A   Clear
8:15 AM 46.4 °F 44.3 °F 46.4 °F 100% 30.19 in 10.0 mi WSW 4.6 mph - N/A   Scattered Clouds
8:35 AM 50.0 °F - 50.0 °F 100% 30.19 in 10.0 mi West 4.6 mph - N/A   Clear
8:55 AM 53.6 °F - 51.8 °F 94% 30.19 in 10.0 mi Calm Calm - N/A   Clear
9:15 AM 55.4 °F - 50.0 °F 82% 30.20 in 10.0 mi Calm Calm - N/A   Clear
9:35 AM 55.4 °F - 50.0 °F 82% 30.20 in 10.0 mi Calm Calm - N/A   Clear
9:55 AM 57.2 °F - 50.0 °F 77% 30.20 in 2.0 mi Calm Calm - N/A   Haze
10:15 AM 59.0 °F - 51.8 °F 77% 30.20 in 1.2 mi NNE 4.6 mph - N/A   Haze
10:35 AM 59.0 °F - 51.8 °F 77% 30.20 in 10.0 mi Calm Calm - N/A   Clear
10:55 AM 60.8 °F - 51.8 °F 72% 30.20 in 10.0 mi Calm Calm - N/A   Clear
11:15 AM 60.8 °F - 51.8 °F 72% 30.20 in 10.0 mi Calm Calm - N/A   Clear
11:35 AM 62.6 °F - 50.0 °F 63% 30.20 in 10.0 mi Calm Calm - N/A   Clear
11:55 AM 62.6 °F - 50.0 °F 63% 30.19 in 10.0 mi Calm Calm - N/A   Mostly Cloudy
12:15 PM 64.4 °F - 51.8 °F 64% 30.18 in 10.0 mi SSE 3.5 mph - N/A   Scattered Clouds
12:35 PM 66.2 °F - 51.8 °F 60% 30.18 in 10.0 mi South 4.6 mph - N/A   Clear
12:55 PM 66.2 °F - 51.8 °F 60% 30.17 in 10.0 mi Calm Calm - N/A   Scattered Clouds
1:15 PM 68.0 °F - 51.8 °F 56% 30.17 in 10.0 mi SE 8.1 mph - N/A   Mostly Cloudy
1:35 PM 69.8 °F - 51.8 °F 53% 30.15 in 10.0 mi East 3.5 mph - N/A   Mostly Cloudy
1:55 PM 69.8 °F - 50.0 °F 49% 30.14 in 10.0 mi SSW 8.1 mph - N/A   Scattered Clouds
2:15 PM 69.8 °F - 50.0 °F 49% 30.14 in 10.0 mi South 6.9 mph - N/A   Scattered Clouds
2:35 PM 71.6 °F - 50.0 °F 46% 30.12 in 10.0 mi Calm Calm - N/A   Clear
2:55 PM 71.6 °F - 50.0 °F 46% 30.11 in 10.0 mi SE 6.9 mph - N/A   Clear
3:15 PM 71.6 °F - 50.0 °F 46% 30.10 in 10.0 mi SSE 10.4 mph - N/A   Clear
3:35 PM 71.6 °F - 46.4 °F 41% 30.10 in 10.0 mi SW 5.8 mph - N/A   Clear
3:55 PM 71.6 °F - 46.4 °F 41% 30.09 in 10.0 mi SSE 4.6 mph - N/A   Clear
4:15 PM 73.4 °F - 50.0 °F 44% 30.09 in 10.0 mi SSW 8.1 mph - N/A   Clear
4:35 PM 73.4 °F - 46.4 °F 38% 30.08 in 10.0 mi South 10.4 mph - N/A   Clear
4:55 PM 73.4 °F - 46.4 °F 38% 30.08 in 10.0 mi SSE 6.9 mph - N/A   Clear
5:15 PM 73.4 °F - 46.4 °F 38% 30.08 in 10.0 mi SSW 5.8 mph - N/A   Clear
5:35 PM 73.4 °F - 44.6 °F 36% 30.08 in 10.0 mi SW 10.4 mph - N/A   Clear
5:55 PM 73.4 °F - 46.4 °F 38% 30.08 in 10.0 mi SW 8.1 mph - N/A   Clear
6:15 PM 71.6 °F - 44.6 °F 38% 30.07 in 10.0 mi South 8.1 mph - N/A   Clear
6:35 PM 71.6 °F - 44.6 °F 38% 30.07 in 10.0 mi South 8.1 mph - N/A   Clear
6:55 PM 71.6 °F - 46.4 °F 41% 30.07 in 10.0 mi South 6.9 mph - N/A   Clear
7:15 PM 69.8 °F - 44.6 °F 40% 30.07 in 10.0 mi South 5.8 mph - N/A   Clear
7:35 PM 68.0 °F - 46.4 °F 46% 30.07 in 10.0 mi South 4.6 mph - N/A   Clear
7:55 PM 66.2 °F - 46.4 °F 49% 30.07 in 10.0 mi South 5.8 mph - N/A   Clear
8:15 PM 64.4 °F - 46.4 °F 52% 30.07 in 10.0 mi SSE 5.8 mph - N/A   Clear
8:35 PM 62.6 °F - 46.4 °F 55% 30.07 in 10.0 mi South 5.8 mph - N/A   Clear
8:55 PM 62.6 °F - 46.4 °F 55% 30.07 in 10.0 mi SSE 8.1 mph - N/A   Clear
9:15 PM 62.6 °F - 46.4 °F 55% 30.07 in 10.0 mi SSE 9.2 mph - N/A   Clear
9:35 PM 62.6 °F - 46.4 °F 55% 30.07 in 10.0 mi South 9.2 mph - N/A   Clear
9:55 PM 62.6 °F - 48.2 °F 59% 30.07 in 10.0 mi South 11.5 mph - N/A   Clear
10:15 PM 60.8 °F - 48.2 °F 63% 30.07 in 10.0 mi SSE 10.4 mph - N/A   Clear
10:35 PM 59.0 °F - 48.2 °F 67% 30.07 in 10.0 mi South 9.2 mph - N/A   Clear
10:55 PM 59.0 °F - 46.4 °F 63% 30.07 in 10.0 mi SSW 5.8 mph - N/A   Clear
11:15 PM 55.4 °F - 48.2 °F 77% 30.07 in 10.0 mi South 6.9 mph - N/A   Clear
11:35 PM 55.4 °F - 48.2 °F 77% 30.07 in 10.0 mi SSW 6.9 mph - N/A   Clear
11:55 PM 55.4 °F - 46.4 °F 72% 30.07 in 10.0 mi SSW 8.1 mph - N/A   Clear